Voltar ao catálogo

FENGYUN 1C DEB

AtivoPO
NORAD 32419·DEBRIS·🇨🇳 China

Lançado May 10, 1999 de Taiyuan Satellite Launch Center

Loading…

Próximas Passagens (próximas 24 horas)

TLE

EnvelhecendoSource: Space-Track

Época: Sep 8, 2026, 12:12 UTC

1 32419U 99025DAF 26251.50865289  .00000684  00000-0  28190-3 0  9994
2 32419  97.9477 161.0991 0280905 326.8586  31.5258 14.10547935673732

Acompanhe FENGYUN 1C DEB em tempo real com AllMySat

Download on the App Store